PRIVATE WETTERSTATION BILLIGHEIM-ALLFELD                       ZURCK
Wetterdaten: Sonntag, 25.06.2017
Datum Zeit Temp. A. Temp. A. min Temp. A. max Feuchte A. Luftdruck Regen Wind Richtung Richtung Sonnenschein ET Solar Taupunkt Windchill Windben Empfang
25.06.2017 00:00 16,8 C 16,8 C 17,1 C 75 % 1013,5 hPa 0,0 l/m 0,0 km/h (0 Bft) N 0 0 min 0,025 mm 0 W/m 12,3 C 16,8 C 0,0 km/h (0 Bft) 100 %
25.06.2017 00:10 16,5 C 16,5 C 16,8 C 77 % 1013,5 hPa 0,0 l/m 0,0 km/h (0 Bft) N 0 0 min 0,000 mm 0 W/m 12,5 C 16,5 C 0,0 km/h (0 Bft) 100 %
25.06.2017 00:20 16,2 C 16,2 C 16,5 C 77 % 1013,4 hPa 0,0 l/m 0,0 km/h (0 Bft) N 0 0 min 0,000 mm 0 W/m 12,2 C 16,2 C 0,0 km/h (0 Bft) 100 %
25.06.2017 00:30 16,1 C 16,0 C 16,2 C 78 % 1013,4 hPa 0,0 l/m 0,0 km/h (0 Bft) N 0 0 min 0,000 mm 0 W/m 12,3 C 16,1 C 0,0 km/h (0 Bft) 100 %
25.06.2017 00:40 15,9 C 15,9 C 16,1 C 78 % 1013,4 hPa 0,0 l/m 0,0 km/h (0 Bft) N 0 0 min 0,000 mm 0 W/m 12,1 C 15,9 C 0,0 km/h (0 Bft) 100 %
25.06.2017 00:50 15,8 C 15,8 C 15,9 C 78 % 1013,4 hPa 0,0 l/m 0,0 km/h (0 Bft) N 0 0 min 0,000 mm 0 W/m 12,0 C 15,8 C 0,0 km/h (0 Bft) 99 %
25.06.2017 01:00 15,7 C 15,7 C 15,8 C 79 % 1013,5 hPa 0,0 l/m 0,0 km/h (0 Bft) N 0 0 min 0,025 mm 0 W/m 12,1 C 15,7 C 0,0 km/h (0 Bft) 100 %
25.06.2017 01:10 15,6 C 15,6 C 15,7 C 80 % 1013,4 hPa 0,0 l/m 0,0 km/h (0 Bft) N 0 0 min 0,000 mm 0 W/m 12,2 C 15,6 C 0,0 km/h (0 Bft) 100 %
25.06.2017 01:20 15,5 C 15,5 C 15,6 C 80 % 1013,4 hPa 0,0 l/m 0,0 km/h (0 Bft) N 0 0 min 0,000 mm 0 W/m 12,1 C 15,5 C 0,0 km/h (0 Bft) 100 %
25.06.2017 01:30 15,4 C 15,4 C 15,5 C 81 % 1013,3 hPa 0,0 l/m 0,0 km/h (0 Bft) N 0 0 min 0,000 mm 0 W/m 12,2 C 15,4 C 0,0 km/h (0 Bft) 100 %
25.06.2017 01:40 15,3 C 15,3 C 15,4 C 81 % 1013,3 hPa 0,0 l/m 0,0 km/h (0 Bft) N 0 0 min 0,000 mm 0 W/m 12,1 C 15,3 C 0,0 km/h (0 Bft) 100 %
25.06.2017 01:50 15,1 C 15,1 C 15,3 C 82 % 1013,2 hPa 0,0 l/m 0,0 km/h (0 Bft) N 0 0 min 0,000 mm 0 W/m 12,0 C 15,1 C 0,0 km/h (0 Bft) 100 %
25.06.2017 02:00 15,1 C 15,1 C 15,1 C 82 % 1013,3 hPa 0,0 l/m 0,0 km/h (0 Bft) N 0 0 min 0,025 mm 0 W/m 12,0 C 15,1 C 0,0 km/h (0 Bft) 100 %
25.06.2017 02:10 14,9 C 14,9 C 15,1 C 83 % 1013,3 hPa 0,0 l/m 0,0 km/h (0 Bft) N 0 0 min 0,000 mm 0 W/m 12,0 C 14,9 C 0,0 km/h (0 Bft) 100 %
25.06.2017 02:20 14,8 C 14,8 C 14,9 C 83 % 1013,3 hPa 0,0 l/m 0,0 km/h (0 Bft) N 0 0 min 0,000 mm 0 W/m 11,9 C 14,8 C 0,0 km/h (0 Bft) 100 %
25.06.2017 02:30 14,7 C 14,7 C 14,8 C 84 % 1013,2 hPa 0,0 l/m 0,0 km/h (0 Bft) N 0 0 min 0,000 mm 0 W/m 12,0 C 14,7 C 0,0 km/h (0 Bft) 100 %
25.06.2017 02:40 14,8 C 14,7 C 14,8 C 85 % 1013,2 hPa 0,0 l/m 0,0 km/h (0 Bft) N 0 0 min 0,000 mm 0 W/m 12,3 C 14,8 C 0,0 km/h (0 Bft) 100 %
25.06.2017 02:50 14,8 C 14,8 C 14,8 C 85 % 1013,2 hPa 0,0 l/m 0,0 km/h (0 Bft) N 0 0 min 0,000 mm 0 W/m 12,3 C 14,8 C 0,0 km/h (0 Bft) 89 %
25.06.2017 03:00 14,8 C 14,8 C 14,9 C 85 % 1013,2 hPa 0,0 l/m 0,0 km/h (0 Bft) N 0 0 min 0,025 mm 0 W/m 12,3 C 14,8 C 0,0 km/h (0 Bft) 100 %
25.06.2017 03:10 14,8 C 14,8 C 14,8 C 86 % 1013,2 hPa 0,0 l/m 0,0 km/h (0 Bft) N 0 0 min 0,000 mm 0 W/m 12,5 C 14,8 C 0,0 km/h (0 Bft) 100 %
25.06.2017 03:20 14,8 C 14,8 C 14,8 C 86 % 1013,2 hPa 0,0 l/m 0,0 km/h (0 Bft) N 0 0 min 0,000 mm 0 W/m 12,5 C 14,8 C 0,0 km/h (0 Bft) 100 %
25.06.2017 03:30 14,7 C 14,7 C 14,8 C 86 % 1013,2 hPa 0,0 l/m 0,0 km/h (0 Bft) N 0 0 min 0,000 mm 0 W/m 12,4 C 14,7 C 0,0 km/h (0 Bft) 100 %
25.06.2017 03:40 14,7 C 14,6 C 14,7 C 85 % 1013,1 hPa 0,0 l/m 0,0 km/h (0 Bft) W 270 0 min 0,000 mm 0 W/m 12,2 C 14,7 C 3,2 km/h (1 Bft) 100 %
25.06.2017 03:50 15,1 C 14,8 C 15,1 C 84 % 1013,2 hPa 0,0 l/m 1,6 km/h (1 Bft) W 270 0 min 0,000 mm 0 W/m 12,4 C 15,1 C 4,8 km/h (1 Bft) 100 %
25.06.2017 04:00 15,4 C 15,1 C 15,4 C 82 % 1013,2 hPa 0,0 l/m 0,0 km/h (0 Bft) W 270 0 min 0,000 mm 0 W/m 12,3 C 15,4 C 3,2 km/h (1 Bft) 100 %
25.06.2017 04:10 15,8 C 15,4 C 15,8 C 81 % 1013,2 hPa 0,0 l/m 0,0 km/h (0 Bft) N 0 0 min 0,000 mm 0 W/m 12,5 C 15,8 C 0,0 km/h (0 Bft) 100 %
25.06.2017 04:20 15,9 C 15,8 C 15,9 C 80 % 1013,3 hPa 0,0 l/m 1,6 km/h (1 Bft) W 270 0 min 0,000 mm 0 W/m 12,5 C 15,9 C 4,8 km/h (1 Bft) 100 %
25.06.2017 04:30 16,0 C 15,9 C 16,0 C 80 % 1013,1 hPa 0,0 l/m 3,2 km/h (1 Bft) W-SW 247 0 min 0,000 mm 0 W/m 12,5 C 16,0 C 6,4 km/h (2 Bft) 100 %
25.06.2017 04:40 16,3 C 16,0 C 16,3 C 77 % 1013,0 hPa 0,0 l/m 1,6 km/h (1 Bft) SO 135 0 min 0,000 mm 0 W/m 12,3 C 16,3 C 4,8 km/h (1 Bft) 100 %
25.06.2017 04:50 16,5 C 16,3 C 16,5 C 76 % 1012,9 hPa 0,0 l/m 0,0 km/h (0 Bft) SO 135 0 min 0,000 mm 0 W/m 12,3 C 16,5 C 3,2 km/h (1 Bft) 100 %
25.06.2017 05:00 16,7 C 16,5 C 16,7 C 75 % 1012,7 hPa 0,0 l/m 0,0 km/h (0 Bft) N 0 0 min 0,025 mm 0 W/m 12,2 C 16,7 C 0,0 km/h (0 Bft) 100 %
25.06.2017 05:10 16,8 C 16,7 C 16,8 C 75 % 1012,7 hPa 0,0 l/m 0,0 km/h (0 Bft) SW 225 0 min 0,000 mm 0 W/m 12,3 C 16,8 C 8,0 km/h (2 Bft) 100 %
25.06.2017 05:20 16,8 C 16,8 C 16,8 C 75 % 1012,6 hPa 0,0 l/m 1,6 km/h (1 Bft) SW 225 0 min 0,000 mm 0 W/m 12,3 C 16,8 C 8,0 km/h (2 Bft) 100 %
25.06.2017 05:30 17,0 C 16,8 C 17,0 C 74 % 1012,5 hPa 0,0 l/m 1,6 km/h (1 Bft) SW 225 0 min 0,000 mm 7 W/m 12,3 C 17,0 C 9,7 km/h (2 Bft) 100 %
25.06.2017 05:40 17,2 C 17,0 C 17,2 C 72 % 1012,5 hPa 0,0 l/m 3,2 km/h (1 Bft) W-SW 247 0 min 0,000 mm 7 W/m 12,1 C 17,2 C 9,7 km/h (2 Bft) 100 %
25.06.2017 05:50 17,4 C 17,2 C 17,4 C 72 % 1012,4 hPa 0,0 l/m 3,2 km/h (1 Bft) SW 225 0 min 0,000 mm 16 W/m 12,3 C 17,4 C 8,0 km/h (2 Bft) 100 %
25.06.2017 06:00 17,5 C 17,4 C 17,5 C 72 % 1012,5 hPa 0,0 l/m 1,6 km/h (1 Bft) SW 225 0 min 0,025 mm 25 W/m 12,4 C 17,5 C 9,7 km/h (2 Bft) 100 %
25.06.2017 06:10 17,6 C 17,5 C 17,6 C 72 % 1012,4 hPa 0,0 l/m 1,6 km/h (1 Bft) SW 225 0 min 0,000 mm 40 W/m 12,5 C 17,6 C 16,1 km/h (3 Bft) 100 %
25.06.2017 06:20 17,7 C 17,6 C 17,7 C 72 % 1012,3 hPa 0,0 l/m 0,0 km/h (0 Bft) W-SW 247 0 min 0,000 mm 42 W/m 12,6 C 17,7 C 6,4 km/h (2 Bft) 100 %
25.06.2017 06:30 17,7 C 17,7 C 17,7 C 72 % 1012,2 hPa 0,0 l/m 0,0 km/h (0 Bft) SW 225 0 min 0,000 mm 40 W/m 12,6 C 17,7 C 9,7 km/h (2 Bft) 100 %
25.06.2017 06:40 17,6 C 17,6 C 17,7 C 73 % 1012,4 hPa 0,0 l/m 0,0 km/h (0 Bft) SW 225 0 min 0,000 mm 32 W/m 12,7 C 17,6 C 8,0 km/h (2 Bft) 100 %
25.06.2017 06:50 17,3 C 17,3 C 17,6 C 75 % 1012,5 hPa 0,0 l/m 0,0 km/h (0 Bft) S-SW 202 0 min 0,000 mm 39 W/m 12,8 C 17,3 C 6,4 km/h (2 Bft) 100 %
25.06.2017 07:00 17,0 C 17,0 C 17,3 C 77 % 1012,7 hPa 0,0 l/m 0,0 km/h (0 Bft) S-SW 202 0 min 0,025 mm 47 W/m 12,9 C 17,0 C 6,4 km/h (2 Bft) 100 %
25.06.2017 07:10 16,8 C 16,8 C 17,0 C 78 % 1012,8 hPa 0,0 l/m 0,0 km/h (0 Bft) S-SW 202 0 min 0,000 mm 56 W/m 12,9 C 16,8 C 8,0 km/h (2 Bft) 100 %
25.06.2017 07:20 16,6 C 16,6 C 16,8 C 80 % 1012,8 hPa 0,0 l/m 0,0 km/h (0 Bft) S-SW 202 0 min 0,000 mm 74 W/m 13,1 C 16,6 C 1,6 km/h (1 Bft) 100 %
25.06.2017 07:30 16,7 C 16,6 C 16,7 C 80 % 1013,1 hPa 0,0 l/m 1,6 km/h (1 Bft) S-SW 202 0 min 0,000 mm 102 W/m 13,2 C 16,7 C 6,4 km/h (2 Bft) 100 %
25.06.2017 07:40 17,0 C 16,7 C 17,0 C 79 % 1012,9 hPa 0,0 l/m 1,6 km/h (1 Bft) S-SO 157 0 min 0,000 mm 111 W/m 13,3 C 17,0 C 14,5 km/h (3 Bft) 100 %
25.06.2017 07:50 17,1 C 17,0 C 17,1 C 79 % 1012,9 hPa 0,0 l/m 0,0 km/h (0 Bft) S-SO 157 0 min 0,000 mm 88 W/m 13,4 C 17,1 C 6,4 km/h (2 Bft) 100 %
25.06.2017 08:00 17,3 C 17,1 C 17,3 C 80 % 1012,9 hPa 0,0 l/m 0,0 km/h (0 Bft) S-SO 157 0 min 0,051 mm 77 W/m 13,8 C 17,3 C 4,8 km/h (1 Bft) 100 %
25.06.2017 08:10 17,6 C 17,3 C 17,6 C 78 % 1013,1 hPa 0,0 l/m 4,8 km/h (1 Bft) S-SW 202 0 min 0,000 mm 70 W/m 13,7 C 17,6 C 14,5 km/h (3 Bft) 99 %
25.06.2017 08:20 17,9 C 17,6 C 17,9 C 77 % 1013,1 hPa 0,0 l/m 6,4 km/h (2 Bft) S-SW 202 10 min 0,000 mm 355 W/m 13,8 C 17,9 C 16,1 km/h (3 Bft) 97 %
25.06.2017 08:30 18,7 C 18,0 C 18,7 C 74 % 1013,1 hPa 0,0 l/m 6,4 km/h (2 Bft) SW 225 10 min 0,000 mm 418 W/m 14,0 C 18,7 C 17,7 km/h (3 Bft) 98 %
25.06.2017 08:40 19,7 C 18,7 C 19,7 C 73 % 1013,0 hPa 0,0 l/m 3,2 km/h (1 Bft) SW 225 10 min 0,000 mm 461 W/m 14,7 C 19,7 C 16,1 km/h (3 Bft) 97 %
25.06.2017 08:50 20,7 C 19,8 C 20,7 C 69 % 1013,1 hPa 0,0 l/m 4,8 km/h (1 Bft) W-SW 247 10 min 0,000 mm 506 W/m 14,8 C 20,7 C 16,1 km/h (3 Bft) 98 %
25.06.2017 09:00 21,4 C 20,7 C 21,4 C 66 % 1013,5 hPa 0,0 l/m 3,2 km/h (1 Bft) S-SW 202 10 min 0,203 mm 585 W/m 14,8 C 21,4 C 16,1 km/h (3 Bft) 98 %
25.06.2017 09:10 22,0 C 21,4 C 22,0 C 62 % 1013,2 hPa 0,0 l/m 8,0 km/h (2 Bft) W-SW 247 10 min 0,000 mm 554 W/m 14,4 C 21,5 C 20,9 km/h (4 Bft) 97 %
25.06.2017 09:20 22,2 C 22,0 C 22,2 C 62 % 1013,0 hPa 0,0 l/m 9,7 km/h (2 Bft) S-SW 202 10 min 0,000 mm 610 W/m 14,6 C 21,2 C 25,7 km/h (4 Bft) 98 %
25.06.2017 09:30 22,4 C 22,2 C 22,5 C 61 % 1012,8 hPa 0,0 l/m 6,4 km/h (2 Bft) W 270 10 min 0,000 mm 626 W/m 14,5 C 22,4 C 16,1 km/h (3 Bft) 97 %
25.06.2017 09:40 22,9 C 22,5 C 22,9 C 58 % 1013,1 hPa 0,0 l/m 9,7 km/h (2 Bft) W 270 10 min 0,000 mm 749 W/m 14,2 C 21,9 C 33,8 km/h (5 Bft) 98 %
25.06.2017 09:50 23,0 C 22,9 C 23,0 C 58 % 1013,1 hPa 0,0 l/m 9,7 km/h (2 Bft) W 270 10 min 0,000 mm 828 W/m 14,3 C 22,0 C 27,4 km/h (4 Bft) 97 %
25.06.2017 10:00 23,0 C 22,9 C 23,1 C 58 % 1013,0 hPa 0,0 l/m 8,0 km/h (2 Bft) W-SW 247 10 min 0,406 mm 909 W/m 14,3 C 22,5 C 24,1 km/h (4 Bft) 97 %
25.06.2017 10:10 22,9 C 22,8 C 22,9 C 60 % 1013,1 hPa 0,0 l/m 6,4 km/h (2 Bft) W-SW 247 10 min 0,000 mm 904 W/m 14,7 C 22,9 C 17,7 km/h (3 Bft) 98 %
25.06.2017 10:20 23,2 C 22,9 C 23,2 C 57 % 1013,0 hPa 0,0 l/m 8,0 km/h (2 Bft) W-SW 247 10 min 0,000 mm 773 W/m 14,2 C 22,7 C 24,1 km/h (4 Bft) 98 %
25.06.2017 10:30 23,6 C 23,2 C 23,6 C 58 % 1012,9 hPa 0,0 l/m 8,0 km/h (2 Bft) W-SW 247 10 min 0,000 mm 759 W/m 14,8 C 23,1 C 20,9 km/h (4 Bft) 98 %
25.06.2017 10:40 24,3 C 23,7 C 24,3 C 54 % 1012,8 hPa 0,0 l/m 9,7 km/h (2 Bft) W 270 10 min 0,000 mm 856 W/m 14,4 C 23,5 C 20,9 km/h (4 Bft) 97 %
25.06.2017 10:50 24,7 C 24,3 C 24,7 C 55 % 1012,7 hPa 0,0 l/m 9,7 km/h (2 Bft) W 270 10 min 0,000 mm 875 W/m 15,0 C 23,9 C 20,9 km/h (4 Bft) 98 %
25.06.2017 11:00 24,7 C 24,7 C 24,8 C 52 % 1012,7 hPa 0,0 l/m 11,3 km/h (2 Bft) W-SW 247 10 min 0,457 mm 895 W/m 14,2 C 23,6 C 25,7 km/h (4 Bft) 97 %
25.06.2017 11:10 24,6 C 24,4 C 24,7 C 53 % 1012,4 hPa 0,0 l/m 11,3 km/h (2 Bft) W 270 10 min 0,000 mm 870 W/m 14,4 C 23,5 C 25,7 km/h (4 Bft) 98 %
25.06.2017 11:20 24,8 C 24,6 C 24,8 C 51 % 1012,4 hPa 0,0 l/m 12,9 km/h (3 Bft) W 270 10 min 0,000 mm 928 W/m 14,0 C 23,4 C 32,2 km/h (5 Bft) 98 %
25.06.2017 11:30 24,5 C 24,5 C 24,7 C 54 % 1012,3 hPa 0,0 l/m 14,5 km/h (3 Bft) W 270 10 min 0,000 mm 1100 W/m 14,6 C 22,8 C 35,4 km/h (5 Bft) 97 %
25.06.2017 11:40 24,2 C 24,2 C 24,5 C 51 % 1012,3 hPa 0,0 l/m 12,9 km/h (3 Bft) W-SW 247 10 min 0,000 mm 652 W/m 13,4 C 22,7 C 33,8 km/h (5 Bft) 98 %
25.06.2017 11:50 24,6 C 24,2 C 24,6 C 53 % 1012,3 hPa 0,0 l/m 11,3 km/h (2 Bft) S-SW 202 10 min 0,000 mm 1114 W/m 14,4 C 23,5 C 33,8 km/h (5 Bft) 97 %
25.06.2017 12:10 24,8 C 24,2 C 25,4 C 49 % 1012,5 hPa 0,0 l/m 16,9 km/h (3 Bft) W-SW 253 20 min 0,486 mm 972 W/m 13,3 C 22,8 C 30,6 km/h (5 Bft) 100 %
25.06.2017 12:20 24,6 C 24,6 C 24,8 C 50 % 1012,4 hPa 0,0 l/m 13,0 km/h (3 Bft) W 273 10 min 0,000 mm 264 W/m 13,5 C 23,1 C 30,6 km/h (5 Bft) 100 %
25.06.2017 12:30 24,3 C 24,3 C 24,6 C 52 % 1012,7 hPa 0,0 l/m 14,3 km/h (3 Bft) W-SW 246 10 min 0,000 mm 401 W/m 13,8 C 22,6 C 30,6 km/h (5 Bft) 100 %
25.06.2017 12:40 24,4 C 24,1 C 24,4 C 55 % 1012,6 hPa 0,0 l/m 8,5 km/h (2 Bft) W-SW 256 10 min 0,000 mm 1299 W/m 14,8 C 23,8 C 24,1 km/h (4 Bft) 100 %
25.06.2017 12:50 25,1 C 24,4 C 25,1 C 52 % 1012,5 hPa 0,0 l/m 11,3 km/h (2 Bft) SW 227 10 min 0,000 mm 202 W/m 14,5 C 24,0 C 24,1 km/h (4 Bft) 100 %
25.06.2017 13:00 24,7 C 24,7 C 25,1 C 53 % 1012,7 hPa 0,0 l/m 9,2 km/h (2 Bft) SW 215 10 min 0,000 mm 206 W/m 14,5 C 24,0 C 24,1 km/h (4 Bft) 100 %
25.06.2017 13:10 23,8 C 23,8 C 24,7 C 54 % 1012,7 hPa 0,0 l/m 10,0 km/h (2 Bft) SW 233 0 min 0,432 mm 134 W/m 13,9 C 22,8 C 29,0 km/h (5 Bft) 100 %
25.06.2017 13:20 23,1 C 23,1 C 23,8 C 55 % 1012,7 hPa 0,0 l/m 10,8 km/h (2 Bft) W-SW 248 10 min 0,000 mm 292 W/m 13,6 C 21,9 C 24,1 km/h (4 Bft) 100 %
25.06.2017 13:30 23,1 C 23,1 C 23,1 C 55 % 1012,8 hPa 0,0 l/m 12,9 km/h (3 Bft) SW 215 10 min 0,000 mm 179 W/m 13,6 C 21,4 C 30,6 km/h (5 Bft) 100 %
25.06.2017 13:40 22,7 C 22,7 C 23,1 C 55 % 1012,8 hPa 0,0 l/m 8,9 km/h (2 Bft) S-SW 212 0 min 0,000 mm 151 W/m 13,2 C 21,9 C 24,1 km/h (4 Bft) 100 %
25.06.2017 13:50 22,5 C 22,5 C 22,7 C 57 % 1012,8 hPa 0,0 l/m 4,9 km/h (1 Bft) W 267 0 min 0,000 mm 114 W/m 13,5 C 22,5 C 19,3 km/h (3 Bft) 100 %
25.06.2017 14:00 22,3 C 22,3 C 22,5 C 56 % 1013,0 hPa 0,0 l/m 7,8 km/h (2 Bft) W 267 0 min 0,178 mm 113 W/m 13,1 C 21,8 C 29,0 km/h (5 Bft) 100 %
25.06.2017 14:10 22,2 C 22,2 C 22,3 C 56 % 1013,0 hPa 0,0 l/m 8,8 km/h (2 Bft) W-SW 257 0 min 0,000 mm 113 W/m 13,0 C 21,4 C 20,9 km/h (4 Bft) 100 %
25.06.2017 14:20 22,2 C 22,2 C 22,2 C 57 % 1013,1 hPa 0,0 l/m 6,4 km/h (2 Bft) W-SW 252 10 min 0,000 mm 176 W/m 13,3 C 22,2 C 24,1 km/h (4 Bft) 100 %
25.06.2017 14:30 22,2 C 22,2 C 22,2 C 59 % 1013,0 hPa 0,0 l/m 4,0 km/h (1 Bft) S-SW 202 10 min 0,000 mm 267 W/m 13,8 C 22,2 C 20,9 km/h (4 Bft) 100 %
25.06.2017 14:40 22,4 C 22,2 C 22,4 C 58 % 1013,0 hPa 0,0 l/m 7,3 km/h (2 Bft) W 275 10 min 0,000 mm 236 W/m 13,7 C 22,1 C 22,5 km/h (4 Bft) 100 %
25.06.2017 14:50 22,6 C 22,3 C 22,6 C 59 % 1012,9 hPa 0,0 l/m 8,7 km/h (2 Bft) W 272 10 min 0,000 mm 281 W/m 14,2 C 21,9 C 24,1 km/h (4 Bft) 100 %
25.06.2017 15:00 22,8 C 22,6 C 22,8 C 57 % 1012,8 hPa 0,0 l/m 11,6 km/h (2 Bft) W 261 10 min 0,177 mm 274 W/m 13,8 C 21,3 C 29,0 km/h (5 Bft) 100 %
25.06.2017 15:10 22,9 C 22,8 C 22,9 C 56 % 1012,8 hPa 0,0 l/m 12,8 km/h (3 Bft) W 263 10 min 0,000 mm 413 W/m 13,6 C 21,2 C 30,6 km/h (5 Bft) 100 %
25.06.2017 15:20 23,4 C 22,9 C 23,4 C 57 % 1012,7 hPa 0,0 l/m 9,5 km/h (2 Bft) W 270 10 min 0,000 mm 369 W/m 14,4 C 22,5 C 24,1 km/h (4 Bft) 100 %
25.06.2017 15:30 23,7 C 23,4 C 23,7 C 55 % 1012,6 hPa 0,0 l/m 10,6 km/h (2 Bft) W-SW 250 10 min 0,000 mm 364 W/m 14,1 C 22,6 C 24,1 km/h (4 Bft) 100 %
25.06.2017 15:40 23,7 C 23,6 C 23,7 C 57 % 1012,5 hPa 0,0 l/m 10,5 km/h (2 Bft) W 263 10 min 0,000 mm 352 W/m 14,7 C 22,6 C 29,0 km/h (5 Bft) 100 %
25.06.2017 15:50 23,9 C 23,7 C 23,9 C 55 % 1012,4 hPa 0,0 l/m 7,4 km/h (2 Bft) W-SW 240 10 min 0,000 mm 424 W/m 14,3 C 23,6 C 19,3 km/h (3 Bft) 100 %
25.06.2017 16:00 24,2 C 23,9 C 24,2 C 55 % 1012,5 hPa 0,0 l/m 10,9 km/h (2 Bft) W 261 10 min 0,331 mm 380 W/m 14,6 C 23,1 C 33,8 km/h (5 Bft) 100 %
25.06.2017 16:10 24,2 C 24,2 C 24,2 C 54 % 1012,3 hPa 0,0 l/m 12,4 km/h (3 Bft) W-SW 254 10 min 0,000 mm 374 W/m 14,3 C 22,8 C 29,0 km/h (5 Bft) 100 %
25.06.2017 16:20 24,4 C 24,1 C 24,4 C 56 % 1012,2 hPa 0,0 l/m 10,8 km/h (2 Bft) S 187 10 min 0,000 mm 323 W/m 15,0 C 23,3 C 41,8 km/h (6 Bft) 100 %
25.06.2017 16:30 24,3 C 24,3 C 24,4 C 54 % 1012,1 hPa 0,0 l/m 14,0 km/h (3 Bft) SW 219 10 min 0,000 mm 290 W/m 14,4 C 22,6 C 37,0 km/h (5 Bft) 100 %
25.06.2017 16:40 24,2 C 24,2 C 24,3 C 55 % 1012,1 hPa 0,0 l/m 10,6 km/h (2 Bft) W-NW 282 10 min 0,000 mm 332 W/m 14,6 C 23,1 C 29,0 km/h (5 Bft) 100 %
25.06.2017 16:50 23,9 C 23,9 C 24,2 C 54 % 1012,2 hPa 0,0 l/m 13,5 km/h (3 Bft) W 267 10 min 0,000 mm 251 W/m 14,0 C 22,2 C 32,2 km/h (5 Bft) 99 %
25.06.2017 17:00 23,7 C 23,7 C 23,9 C 56 % 1012,2 hPa 0,0 l/m 11,3 km/h (2 Bft) W 281 10 min 0,304 mm 188 W/m 14,4 C 22,4 C 27,4 km/h (4 Bft) 100 %
25.06.2017 17:10 23,4 C 23,4 C 23,7 C 56 % 1012,3 hPa 0,0 l/m 15,8 km/h (3 Bft) W-NW 303 10 min 0,000 mm 229 W/m 14,1 C 21,2 C 30,6 km/h (5 Bft) 100 %
25.06.2017 17:20 23,3 C 23,2 C 23,4 C 59 % 1012,4 hPa 0,0 l/m 7,6 km/h (2 Bft) W 264 10 min 0,000 mm 272 W/m 14,8 C 22,9 C 20,9 km/h (4 Bft) 99 %
25.06.2017 17:30 23,3 C 23,3 C 23,4 C 59 % 1012,4 hPa 0,0 l/m 12,1 km/h (2 Bft) W 276 10 min 0,000 mm 195 W/m 14,8 C 21,8 C 29,0 km/h (5 Bft) 100 %
25.06.2017 17:40 23,1 C 23,1 C 23,3 C 60 % 1012,4 hPa 0,0 l/m 8,0 km/h (2 Bft) W-NW 298 10 min 0,000 mm 237 W/m 14,9 C 22,6 C 19,3 km/h (3 Bft) 100 %
25.06.2017 17:50 23,1 C 23,0 C 23,1 C 60 % 1012,3 hPa 0,0 l/m 4,2 km/h (1 Bft) W-NW 303 10 min 0,000 mm 202 W/m 14,9 C 23,1 C 16,1 km/h (3 Bft) 100 %
25.06.2017 18:00 22,9 C 22,9 C 23,1 C 60 % 1012,3 hPa 0,0 l/m 4,2 km/h (1 Bft) W 270 10 min 0,178 mm 176 W/m 14,7 C 22,9 C 14,5 km/h (3 Bft) 98 %
25.06.2017 18:10 22,8 C 22,8 C 22,9 C 61 % 1012,3 hPa 0,0 l/m 9,3 km/h (2 Bft) S-SW 212 10 min 0,000 mm 183 W/m 14,9 C 21,9 C 24,1 km/h (4 Bft) 100 %
25.06.2017 18:20 22,8 C 22,7 C 22,8 C 60 % 1012,3 hPa 0,0 l/m 7,3 km/h (2 Bft) W-SW 238 0 min 0,000 mm 149 W/m 14,6 C 22,5 C 19,3 km/h (3 Bft) 100 %
25.06.2017 18:30 22,6 C 22,6 C 22,8 C 60 % 1012,2 hPa 0,0 l/m 8,6 km/h (2 Bft) W-NW 287 0 min 0,000 mm 88 W/m 14,4 C 21,9 C 24,1 km/h (4 Bft) 99 %
25.06.2017 18:40 22,3 C 22,3 C 22,6 C 60 % 1012,4 hPa 0,0 l/m 10,5 km/h (2 Bft) W 261 0 min 0,000 mm 58 W/m 14,2 C 21,0 C 35,4 km/h (5 Bft) 100 %
25.06.2017 18:50 22,0 C 22,0 C 22,3 C 61 % 1012,2 hPa 0,0 l/m 12,4 km/h (3 Bft) W-SW 256 0 min 0,000 mm 70 W/m 14,1 C 20,2 C 33,8 km/h (5 Bft) 100 %
25.06.2017 19:00 21,9 C 21,9 C 22,0 C 61 % 1012,3 hPa 0,0 l/m 8,9 km/h (2 Bft) W 266 0 min 0,127 mm 84 W/m 14,0 C 21,1 C 19,3 km/h (3 Bft) 100 %
25.06.2017 19:10 21,9 C 21,9 C 21,9 C 62 % 1012,3 hPa 0,0 l/m 7,9 km/h (2 Bft) W 259 0 min 0,000 mm 107 W/m 14,3 C 21,4 C 16,1 km/h (3 Bft) 100 %
25.06.2017 19:20 21,9 C 21,9 C 21,9 C 62 % 1012,3 hPa 0,0 l/m 4,2 km/h (1 Bft) S-SW 209 0 min 0,000 mm 70 W/m 14,3 C 21,9 C 16,1 km/h (3 Bft) 100 %
25.06.2017 19:30 21,8 C 21,8 C 21,9 C 63 % 1012,3 hPa 0,0 l/m 1,2 km/h (1 Bft) W-SW 249 0 min 0,000 mm 33 W/m 14,4 C 21,8 C 9,7 km/h (2 Bft) 100 %
25.06.2017 19:40 21,7 C 21,7 C 21,9 C 63 % 1012,2 hPa 0,0 l/m 2,5 km/h (1 Bft) W-SW 242 0 min 0,000 mm 35 W/m 14,3 C 21,7 C 14,5 km/h (3 Bft) 100 %
25.06.2017 19:50 21,6 C 21,6 C 21,7 C 63 % 1012,2 hPa 0,0 l/m 1,2 km/h (1 Bft) W 261 0 min 0,000 mm 32 W/m 14,2 C 21,6 C 14,5 km/h (3 Bft) 100 %
25.06.2017 20:00 21,6 C 21,6 C 21,6 C 64 % 1012,1 hPa 0,0 l/m 2,5 km/h (1 Bft) SW 234 0 min 0,051 mm 28 W/m 14,5 C 21,6 C 11,3 km/h (2 Bft) 99 %
25.06.2017 20:10 21,5 C 21,5 C 21,6 C 64 % 1012,1 hPa 0,0 l/m 1,2 km/h (1 Bft) W 260 0 min 0,000 mm 30 W/m 14,4 C 21,5 C 11,3 km/h (2 Bft) 100 %
25.06.2017 20:20 21,4 C 21,4 C 21,5 C 64 % 1012,1 hPa 0,0 l/m 1,9 km/h (1 Bft) W-SW 244 0 min 0,000 mm 46 W/m 14,3 C 21,4 C 17,7 km/h (3 Bft) 100 %
25.06.2017 20:30 21,4 C 21,4 C 21,4 C 65 % 1012,0 hPa 0,0 l/m 0,9 km/h (0 Bft) SW 227 0 min 0,000 mm 47 W/m 14,5 C 21,4 C 9,7 km/h (2 Bft) 100 %
25.06.2017 20:40 21,3 C 21,3 C 21,4 C 65 % 1012,0 hPa 0,0 l/m 2,0 km/h (1 Bft) SW 235 0 min 0,000 mm 30 W/m 14,4 C 21,3 C 11,3 km/h (2 Bft) 100 %
25.06.2017 20:50 21,1 C 21,1 C 21,3 C 66 % 1012,1 hPa 0,0 l/m 0,9 km/h (0 Bft) SW 223 0 min 0,000 mm 26 W/m 14,5 C 21,1 C 11,3 km/h (2 Bft) 99 %
25.06.2017 21:00 21,0 C 21,0 C 21,1 C 66 % 1012,2 hPa 0,0 l/m 3,2 km/h (1 Bft) W-SW 254 0 min 0,025 mm 21 W/m 14,4 C 21,0 C 17,7 km/h (3 Bft) 100 %
25.06.2017 21:10 20,9 C 20,9 C 21,1 C 67 % 1012,1 hPa 0,0 l/m 1,6 km/h (1 Bft) SW 225 0 min 0,000 mm 21 W/m 14,5 C 20,9 C 11,3 km/h (2 Bft) 100 %
25.06.2017 21:20 20,7 C 20,7 C 20,9 C 67 % 1012,2 hPa 0,0 l/m 1,6 km/h (1 Bft) SW 225 0 min 0,000 mm 11 W/m 14,3 C 20,7 C 9,7 km/h (2 Bft) 100 %
25.06.2017 21:30 20,4 C 20,4 C 20,7 C 68 % 1012,2 hPa 0,0 l/m 1,6 km/h (1 Bft) SW 225 0 min 0,000 mm 5 W/m 14,3 C 20,4 C 11,3 km/h (2 Bft) 100 %
25.06.2017 21:40 20,2 C 20,2 C 20,4 C 69 % 1012,3 hPa 0,0 l/m 0,0 km/h (0 Bft) SW 225 0 min 0,000 mm 0 W/m 14,3 C 20,2 C 6,4 km/h (2 Bft) 99 %
25.06.2017 21:50 20,1 C 20,1 C 20,2 C 70 % 1012,4 hPa 0,0 l/m 0,0 km/h (0 Bft) SW 225 0 min 0,000 mm 0 W/m 14,5 C 20,1 C 3,2 km/h (1 Bft) 98 %
25.06.2017 22:00 19,9 C 19,9 C 20,1 C 70 % 1012,5 hPa 0,0 l/m 0,0 km/h (0 Bft) SW 225 0 min 0,025 mm 0 W/m 14,3 C 19,9 C 8,0 km/h (2 Bft) 98 %
25.06.2017 22:10 19,8 C 19,8 C 19,9 C 71 % 1012,6 hPa 0,0 l/m 1,6 km/h (1 Bft) S-SW 202 0 min 0,000 mm 0 W/m 14,4 C 19,8 C 8,0 km/h (2 Bft) 98 %
25.06.2017 22:20 19,4 C 19,4 C 19,7 C 72 % 1012,6 hPa 0,0 l/m 0,0 km/h (0 Bft) S 180 0 min 0,000 mm 0 W/m 14,2 C 19,4 C 8,0 km/h (2 Bft) 98 %
25.06.2017 22:30 19,2 C 19,2 C 19,4 C 73 % 1012,6 hPa 0,0 l/m 0,0 km/h (0 Bft) S-SW 202 0 min 0,000 mm 0 W/m 14,2 C 19,2 C 6,4 km/h (2 Bft) 98 %
25.06.2017 22:40 19,1 C 19,1 C 19,2 C 74 % 1012,6 hPa 0,0 l/m 1,6 km/h (1 Bft) S-SW 202 0 min 0,000 mm 0 W/m 14,4 C 19,1 C 11,3 km/h (2 Bft) 98 %
25.06.2017 22:50 18,9 C 18,9 C 19,1 C 74 % 1012,7 hPa 0,0 l/m 1,6 km/h (1 Bft) S-SW 202 0 min 0,000 mm 0 W/m 14,2 C 18,9 C 11,3 km/h (2 Bft) 97 %
25.06.2017 23:00 18,7 C 18,7 C 18,9 C 75 % 1012,8 hPa 0,0 l/m 1,6 km/h (1 Bft) S 180 0 min 0,025 mm 0 W/m 14,2 C 18,7 C 8,0 km/h (2 Bft) 98 %
25.06.2017 23:10 18,6 C 18,6 C 18,7 C 75 % 1012,9 hPa 0,0 l/m 1,6 km/h (1 Bft) S-SW 202 0 min 0,000 mm 0 W/m 14,1 C 18,6 C 9,7 km/h (2 Bft) 97 %
25.06.2017 23:20 18,6 C 18,6 C 18,6 C 75 % 1012,8 hPa 0,0 l/m 0,0 km/h (0 Bft) S-SW 202 0 min 0,000 mm 0 W/m 14,1 C 18,6 C 8,0 km/h (2 Bft) 98 %
25.06.2017 23:30 18,5 C 18,5 C 18,6 C 75 % 1012,8 hPa 0,0 l/m 1,6 km/h (1 Bft) SW 225 0 min 0,000 mm 0 W/m 14,0 C 18,5 C 11,3 km/h (2 Bft) 98 %
25.06.2017 23:40 18,5 C 18,5 C 18,5 C 75 % 1012,9 hPa 0,0 l/m 1,6 km/h (1 Bft) SW 225 0 min 0,000 mm 0 W/m 14,0 C 18,5 C 9,7 km/h (2 Bft) 97 %
25.06.2017 23:50 18,6 C 18,5 C 18,6 C 75 % 1012,9 hPa 0,0 l/m 3,2 km/h (1 Bft) SW 225 0 min 0,000 mm 0 W/m 14,1 C 18,6 C 16,1 km/h (3 Bft) 98 %
_ Min-Zeit 03:40 03:40 03:40 12:10 20:30 - 00:00 - - - - - 02:20 02:30 00:00 02:50
Minimum _ 14,6 C 14,6 C 14,7 C 49 % 1012,0 hPa - 0,0 km/h (0 Bft) - - - - - 11,9 C 14,7 C 0,0 km/h (0 Bft) 89 %
_ Max-Zeit 12:10 11:00 12:10 03:10 00:00 00:00 12:10 - - 12:10 12:10 12:40 16:20 12:50 16:20 00:00
Maximum _ 25,4 C 24,7 C 25,4 C 86 % 1013,5 hPa 0,0 l/m 16,9 km/h
W-SW (3 Bft)
- - 20 min 0,486 mm 1299 W/m 15,0 C 24,0 C 41,8 km/h
S-SW (6 Bft)
100 %
Durchschnitt _ 20,1 C 20,0 C 20,2 C 67 % 1012,7 hPa #0,0 l/m 4,8 km/h (1 Bft) W - #9:10 h #3,631 mm 306 W/m 13,6 C 19,7 C 15,0 km/h (3 Bft) 99 %
PRIVATE WETTERSTATION BILLIGHEIM-ALLFELD - www.neckar-odenwald-wetter.de - Holger Sonntag